This is the latest recevied weather packets stored in our database for station/object KI4HRG. If no packets are shown the sender has not sent any weather packets the latest 10 day(s).
| Time | Temp. | Humidity | Pressure | Rain* | Wind** | Luminosity | Snow |
|---|---|---|---|---|---|---|---|
| 1788122576 | 33.33° C | 57% | 1017.8 hPa | 0 mm | - | 520 W/m² | - |
| 1788122273 | 33.33° C | 57% | 1018.1 hPa | 0 mm | - | 527 W/m² | - |
| 1788121969 | 33.89° C | 57% | 1018 hPa | 0 mm | - | 111 W/m² | - |
| 1788121668 | 33.33° C | 58% | 1018.1 hPa | 0 mm | - | 494 W/m² | - |
| 1788121363 | 33.89° C | 57% | 1018 hPa | 0 mm | - | 544 W/m² | - |
| 1788121062 | 33.33° C | 58% | 1018.1 hPa | 0 mm | - | 537 W/m² | - |
| 1788120758 | 33.33° C | 57% | 1018.1 hPa | 0 mm | - | 559 W/m² | - |
| 1788120453 | 33.33° C | 59% | 1018.2 hPa | 0 mm | - | 553 W/m² | - |
| 1788120152 | 32.78° C | 59% | 1018.3 hPa | 0 mm | - | 581 W/m² | - |
| 1788119848 | 32.22° C | 60% | 1018.4 hPa | 0 mm | - | 553 W/m² | - |
| 1788119546 | 32.78° C | 58% | 1018.4 hPa | 0 mm | - | 110 W/m² | - |
| 1788119244 | 33.33° C | 59% | 1018.4 hPa | 0 mm | - | 603 W/m² | - |
| 1788118939 | 33.89° C | 58% | 1018.4 hPa | 0 mm | - | 686 W/m² | - |
| 1788118634 | 33.33° C | 60% | 1018.4 hPa | 0 mm | - | 681 W/m² | - |
| 1788118329 | 32.78° C | 60% | 1018.7 hPa | 0 mm | - | 664 W/m² | - |
| 1788118024 | 32.78° C | 61% | 1018.6 hPa | 0 mm | - | 696 W/m² | - |
| 1788117719 | 32.22° C | 61% | 1018.8 hPa | 0 mm | - | 149 W/m² | - |
| 1788117415 | 32.22° C | 62% | 1018.8 hPa | 0 mm | - | 106 W/m² | - |
| 1788117109 | 32.22° C | 62% | 1018.8 hPa | 0 mm | - | 681 W/m² | - |
| 1788116805 | 32.78° C | 62% | 1019 hPa | 0 mm | - | 147 W/m² | - |
| 1788116500 | 32.78° C | 62% | 1018.6 hPa | 0 mm | - | 661 W/m² | - |
| 1788116198 | 33.33° C | 61% | 1018.9 hPa | 0 mm | - | 717 W/m² | - |
| 1788115894 | 32.78° C | 61% | 1018.8 hPa | 0 mm | - | 317 W/m² | - |
| 1788115592 | 32.78° C | 62% | 1019 hPa | 0 mm | - | 759 W/m² | - |
| 1788115287 | 32.78° C | 60% | 1019.3 hPa | 0 mm | - | 682 W/m² | - |
* Rain latest hour (hover to see other rain measurements)
** Current wind speed in m/s (hover to see current wind gust speed)